Lapse_Rate
6.5 6.4 6.0 5.9 5.8 5.7 5.7 6.0 6.1 6.3 6.6 6.4 6.6 6.5 6.7 6.8 6.8 6.8 6.8 6.9 7.1 7.2 7.4 7.4 7.5 7.6 7.6 7.6 7.4 7.0 7.1 6.7 7.3 7.0 6.8 6.5 6.3 6.2 6.1 5.9 5.9 5.8 5.8
6.4 6.3 6.2 6.1 5.8 5.8 6.0 5.8 6.0 6.4 6.5 6.5 6.5 6.6 6.8 6.9 6.9 7.0 7.1 7.2 7.4 7.7 7.6 7.6 7.8 7.9 8.2 7.9 7.6 7.3 6.9 6.4 6.9 7.2 7.3 6.7 6.2 6.0 5.9 5.8 5.6 5.6 5.6
6.6 6.6 6.5 6.5 6.3 6.1 6.2 6.2 6.4 6.3 6.3 6.2 6.3 6.5 6.8 7.1 7.2 7.5 7.5 7.5 7.4 7.4 7.7 7.9 7.8 7.9 7.9 7.6 7.4 7.9 7.6 7.4 6.7 7.4 7.3 7.2 6.7 6.5 6.4 6.2 6.0 6.1 6.0
7.1 7.0 6.8 6.7 6.6 6.6 6.6 6.6 6.6 6.6 6.6 6.5 6.2 6.5 6.8 6.7 7.0 7.3 7.3 7.3 7.0 7.3 7.4 7.4 7.5 7.3 7.3 7.3 7.3 7.1 7.4 7.7 7.2 7.0 6.9 6.9 6.8 6.8 6.7 6.4 6.2 6.2 6.3
7.7 7.3 7.1 6.9 6.3 6.3 6.2 6.3 6.4 5.8 6.3 6.3 6.7 6.9 6.9 6.8 7.1 7.0 7.1 7.0 7.1 7.1 7.1 7.2 7.0 7.0 7.0 6.8 6.8 6.8 6.4 6.8 6.8 6.6 6.6 6.7 6.9 6.9 6.6 6.4 6.4 6.2 6.4
7.7 7.6 7.2 7.3 6.9 6.6 6.6 7.1 6.3 6.1 5.8 5.9 6.1 6.5 6.6 7.1 6.9 6.8 6.9 6.8 6.6 6.5 6.6 6.6 6.5 6.4 6.4 6.5 6.6 6.7 6.8 6.7 6.7 6.6 6.6 6.5 6.7 6.7 6.7 6.5 6.5 6.4 6.4
8.1 7.3 5.8 6.8 6.5 6.6 6.9 6.9 6.8 7.0 5.3 6.0 6.5 7.0 6.2 6.5 6.8 6.9 6.8 6.5 6.5 6.6 6.6 6.5 6.4 6.4 6.3 6.3 6.6 6.8 6.9 6.8 6.8 6.9 6.8 6.9 6.9 6.9 6.8 6.7 6.5 6.3 6.3
7.0 7.0 7.4 7.1 6.5 7.2 6.7 6.5 6.4 7.0 6.5 6.4 6.7 6.7 6.5 6.4 6.2 6.3 6.4 6.5 6.4 6.5 6.6 6.6 6.7 6.7 6.7 6.8 6.8 6.8 6.9 7.0 7.0 6.9 6.9 7.0 6.9 6.9 6.8 6.6 6.6 6.3 6.3
7.2 7.1 6.8 6.5 6.5 6.5 7.0 6.9 6.6 5.7 6.2 5.8 5.3 5.5 5.7 5.8 5.9 6.2 6.2 6.3 6.5 6.5 6.6 6.8 6.9 7.0 7.0 7.0 7.0 7.1 7.2 7.2 6.9 6.8 6.8 6.7 6.6 6.6 6.5 6.5 6.5 6.2 6.2
7.0 6.8 6.5 6.1 6.5 6.7 7.2 6.7 6.2 6.2 6.4 6.3 6.0 5.9 6.1 6.2 6.3 6.3 6.4 6.5 6.6 6.7 6.7 6.7 6.7 6.8 6.9 6.8 7.0 7.0 6.9 6.8 6.9 6.9 7.0 6.9 6.7 6.6 6.6 6.6 6.4 6.4 6.3
6.3 6.3 6.2 6.4 6.4 6.8 6.8 6.8 6.9 6.8 6.6 6.3 6.1 6.2 6.4 6.5 6.4 6.4 6.5 6.6 6.7 6.8 6.9 6.7 6.8 6.5 6.6 6.7 6.7 6.7 6.6 6.8 6.9 6.9 6.9 6.7 6.5 6.3 6.2 6.2 6.2 6.2 6.0
6.2 6.0 5.8 6.1 6.2 6.5 6.6 6.3 6.6 6.6 6.6 6.5 6.5 6.5 6.6 6.7 6.8 6.7 6.9 7.0 7.0 7.0 6.7 6.6 6.6 6.6 6.6 6.7 6.7 6.7 6.7 6.7 6.8 6.7 6.7 6.5 6.5 6.1 5.9 5.9 5.9 6.0 6.0
6.1 5.8 6.0 6.1 6.0 5.8 6.3 6.3 6.4 6.4 6.3 6.3 6.3 6.4 6.6 6.8 6.9 6.9 6.9 7.0 7.0 6.9 6.7 6.6 6.5 6.5 6.5 6.6 6.6 6.6 6.6 6.7 6.5 6.5 6.5 6.4 6.3 6.1 5.8 5.8 5.5 5.8 5.6
5.6 5.2 5.4 5.7 6.0 6.1 6.0 6.0 6.1 6.2 6.2 6.2 6.3 6.5 6.7 6.8 6.8 6.8 6.8 6.8 6.8 6.7 6.6 6.6 6.6 6.6 6.5 6.4 6.3 6.1 6.1 6.2 6.3 6.3 6.1 6.1 6.2 6.2 6.1 5.5 5.2 5.2 5.1
5.7 5.7 5.8 6.0 5.9 5.9 5.9 6.0 6.1 6.1 6.2 6.2 6.2 6.3 6.4 6.5 6.5 6.5 6.4 6.4 6.4 6.4 6.4 6.4 6.4 6.2 6.0 5.9 5.8 5.7 5.7 5.7 5.7 5.7 5.9 6.1 5.9 5.7 5.9 5.6 5.3 5.1 5.2
5.9 5.9 5.8 5.7 5.7 5.7 5.6 5.6 5.7 5.7 5.8 5.9 6.0 6.2 6.3 6.5 6.6 6.6 6.7 6.9 6.8 6.7 6.8 6.7 6.6 6.2 6.1 5.8 5.6 5.5 5.4 5.3 5.3 5.4 5.6 5.7 5.5 5.3 5.4 5.5 5.5 5.4 5.4
6.0 5.9 5.9 5.8 5.7 5.6 5.5 5.5 5.5 5.6 5.6 5.7 5.9 6.0 6.1 6.1 6.1 6.2 6.3 6.3 6.4 6.5 6.4 6.3 6.2 6.1 5.8 5.6 5.5 5.6 5.6 5.6 5.5 5.4 5.4 5.4 5.5 5.5 5.4 5.5 5.7 5.3 5.7
6.1 6.1 5.9 5.8 5.8 5.8 5.9 5.9 6.0 6.0 5.9 5.8 5.6 5.6 5.5 5.5 5.8 6.0 6.2 6.4 6.2 6.4 6.3 6.2 6.1 5.9 5.7 5.7 5.6 5.7 5.8 5.8 5.9 5.7 5.5 5.5 5.6 5.7 5.1 5.2 5.7 5.6 5.6
6.1 6.0 6.0 6.0 6.1 6.1 6.1 6.0 5.9 5.8 5.6 5.4 5.5 5.5 5.6 5.5 5.2 5.4 5.6 5.8 5.8 6.0 6.1 6.0 6.1 6.2 6.2 5.9 5.9 5.9 6.0 6.0 5.9 5.8 5.8 5.7 5.7 5.8 5.7 5.7 5.8 5.7 5.7
6.2 6.1 6.0 5.9 5.8 5.8 5.7 5.6 5.5 5.2 5.2 5.2 5.1 5.0 5.2 5.8 6.2 6.0 6.0 6.2 6.3 6.2 6.2 6.4 6.2 6.1 6.1 6.0 6.0 6.0 5.8 5.9 6.0 6.0 6.0 5.9 5.7 5.7 5.7 5.7 5.7 5.9 5.9
6.3 6.1 6.0 5.8 5.8 5.7 5.6 5.6 5.6 5.6 5.5 5.5 5.6 5.5 5.7 5.6 5.5 5.9 6.0 6.1 6.1 6.1 6.0 6.0 6.0 6.1 6.1 6.1 5.9 5.8 5.7 5.7 5.7 5.8 5.8 5.8 5.7 5.7 5.8 5.5 5.6 5.7 6.0
6.2 6.2 6.0 6.0 5.8 5.8 5.8 5.8 5.7 5.4 5.1 5.6 5.6 5.6 5.4 5.2 5.2 5.3 5.1 5.2 5.4 5.3 5.1 5.1 4.9 5.4 5.8 5.8 5.8 5.7 5.6 5.7 5.7 5.7 5.4 5.3 5.5 5.6 5.7 5.6 5.7 5.8 5.9
6.1 6.1 5.9 5.7 5.5 5.2 5.1 5.1 5.2 5.1 5.3 5.5 5.4 5.1 5.0 5.3 5.5 5.5 5.2 4.8 4.4 4.4 4.3 4.2 4.6 4.7 5.0 4.9 5.3 5.3 5.5 5.6 5.6 5.4 5.4 5.0 5.0 5.3 5.5 5.6 5.7 5.8 5.8
6.2 6.4 6.2 5.7 5.3 5.3 5.4 5.4 5.3 5.3 5.6 5.4 5.2 4.9 4.8 4.9 5.0 5.2 4.9 4.9 4.8 4.8 4.6 4.6 4.9 5.3 4.8 4.9 4.9 4.9 4.9 4.7 4.5 4.8 4.9 5.0 5.0 5.0 5.5 5.4 5.4 5.6 5.8
6.2 6.1 6.1 6.0 5.6 5.7 5.6 5.5 5.1 5.4 5.5 5.4 5.3 5.0 4.7 4.6 5.0 5.2 5.2 5.1 5.3 5.6 5.1 5.0 5.3 5.4 5.3 5.0 4.9 4.9 4.7 4.6 4.8 4.9 4.8 4.8 5.1 4.9 5.1 5.2 5.4 5.3 5.5
6.1 5.8 5.7 5.7 5.7 5.4 5.5 5.2 5.3 5.5 5.4 5.4 5.5 5.6 5.5 5.5 5.3 5.1 5.3 5.4 5.6 5.6 5.4 5.4 5.3 5.5 5.2 5.2 5.0 4.9 4.7 4.8 4.9 4.9 5.1 5.1 5.2 5.1 5.2 5.1 5.3 5.4 5.4
Wind_Speed
13 11 10 8 8 8 8 8 7 6 5 5 3 4 4 5 5 5 4 5 7 6 6 9 10 9 8 7 6 6 9 7 6 7 5 5 6 7 8 11 12 12 11
6 7 4 5 4 3 3 1 2 5 3 2 2 3 3 4 4 2 2 1 4 6 7 8 11 8 11 8 7 8 7 9 5 9 6 5 7 6 7 8 8 12 11
13 14 13 13 11 11 10 9 8 7 7 4 4 4 5 5 5 3 1 2 5 7 10 10 11 9 9 6 1 4 5 3 5 4 6 5 4 5 7 8 9 9 13
18 18 17 14 11 10 8 8 8 7 7 5 5 3 1 4 3 1 3 4 6 7 10 11 11 11 10 8 6 5 5 4 3 3 7 9 6 5 6 6 8 10 9
19 18 15 11 11 9 7 7 5 8 4 4 3 2 0 1 3 4 5 6 7 8 10 10 10 9 10 9 7 9 9 6 6 7 7 6 8 4 8 7 10 9 8
18 15 12 12 11 9 8 8 6 4 6 4 4 3 1 2 6 6 5 7 8 9 10 11 12 12 11 9 9 8 8 8 10 9 10 9 11 8 9 9 8 7 6
15 9 6 5 7 3 1 4 10 6 5 5 2 2 2 2 3 4 5 7 7 9 10 10 10 9 11 13 11 7 10 12 14 12 12 12 11 9 8 8 10 10 11
8 10 9 10 1 4 2 3 5 3 6 4 2 1 3 2 6 7 7 5 6 8 8 8 9 11 10 11 13 13 12 12 10 8 10 10 10 9 9 8 9 7 8
9 8 8 16 5 2 5 5 5 4 5 5 3 4 4 3 4 4 5 5 5 7 6 7 8 10 8 9 9 12 13 13 6 6 9 10 12 10 10 7 7 6 4
9 8 9 6 8 5 5 4 1 2 3 3 4 3 3 5 4 6 6 5 7 7 8 9 8 8 7 8 8 10 11 12 10 10 9 8 9 9 11 10 7 7 7
10 10 8 7 6 6 6 4 3 2 1 1 3 3 4 4 6 6 4 6 7 8 8 9 8 6 6 6 7 9 11 11 12 10 9 8 7 7 5 5 7 7 7
9 9 8 6 5 5 5 3 2 1 2 3 3 5 4 4 3 6 7 6 6 7 9 8 9 8 12 14 8 11 12 11 8 9 9 9 8 8 5 4 6 10 11
8 6 6 6 7 6 3 5 4 3 3 3 4 4 4 5 5 4 7 7 7 7 7 10 13 15 16 13 14 9 8 7 9 10 10 10 9 8 9 8 7 8 10
8 5 4 4 4 4 4 4 3 3 4 4 4 5 6 5 5 5 5 6 5 7 5 8 10 12 15 13 10 10 7 8 8 9 10 9 9 9 9 8 8 7 7
7 5 4 3 1 1 2 4 4 3 4 5 5 5 6 6 6 7 6 7 7 8 8 9 9 9 9 9 9 9 9 9 9 9 9 9 9 9 9 9 9 8 8
6 4 4 3 2 1 3 4 6 10 11 9 10 8 6 7 12 11 10 9 10 9 5 8 9 9 10 10 9 9 9 9 9 8 9 9 9 9 9 9 9 9 9
5 4 4 2 2 1 2 3 5 3 13 10 9 10 11 11 7 9 10 11 14 5 6 9 8 9 9 10 10 9 9 9 9 9 9 10 9 10 10 10 10 9 10
4 2 1 0 1 2 3 4 5 5 5 5 5 5 9 11 9 9 8 8 7 8 9 8 7 7 7 6 7 8 7 7 7 7 9 9 10 10 11 11 11 12 11
3 2 2 3 3 4 4 4 4 4 4 5 6 5 11 9 11 11 9 7 9 9 8 8 9 8 9 8 10 9 9 8 10 10 7 8 9 9 9 10 12 12 11
5 7 6 4 4 4 4 5 5 4 5 5 6 6 6 7 10 10 9 8 7 9 9 10 9 8 9 8 8 8 8 8 8 9 7 7 8 10 10 12 12 12 11
5 5 5 5 5 5 6 6 6 6 7 7 8 7 3 7 10 10 10 9 8 7 7 8 8 9 8 7 8 6 5 7 8 8 7 8 8 8 11 11 12 12 11
6 6 6 7 6 6 6 7 7 8 8 8 8 8 4 8 9 10 10 10 8 6 6 7 8 8 8 7 5 7 9 8 8 7 7 7 7 7 8 9 10 10 12
7 8 8 7 6 6 7 7 6 7 8 9 8 9 9 10 11 10 9 7 7 6 7 6 7 7 6 7 6 6 7 8 8 8 8 8 7 7 7 7 8 9 9
9 9 9 8 7 6 7 7 7 7 7 7 8 8 9 9 10 9 7 7 6 7 6 6 6 9 8 7 6 8 8 8 8 8 12 10 9 9 9 8 9 11 11
9 8 8 6 5 4 8 7 5 7 6 6 6 8 9 9 6 7 7 6 6 6 7 7 6 8 9 12 10 12 15 18 13 12 7 10 11 12 10 8 10 10 11
9 9 8 7 6 5 6 5 5 5 6 6 7 8 9 9 8 6 7 6 6 6 7 5 7 10 11 9 11 17 18 15 12 12 8 7 8 7 7 10 13 9 12
Wind_Direction
196 195 204 211 204 213 224 230 233 245 270 280 340 326 339 342 311 252 201 189 205 209 211 214 216 214 219 225 234 210 166 165 240 284 260 248 224 231 239 228 229 229 239
133 133 131 145 166 185 214 106 106 117 98 69 82 78 47 61 38 25 223 245 217 233 246 248 254 260 266 271 260 237 205 151 173 262 281 240 229 231 244 240 240 241 241
123 117 97 86 74 72 66 60 57 59 53 54 64 80 92 79 71 31 14 240 260 271 272 275 283 287 299 327 278 302 314 96 156 219 265 252 234 220 228 241 241 241 242
112 106 98 96 91 82 72 55 61 53 39 42 50 55 337 109 102 152 249 286 282 281 279 278 276 280 283 304 311 313 306 3 329 249 266 273 266 240 239 253 247 235 242
112 108 114 121 105 99 85 74 66 72 57 32 58 74 71 267 69 323 293 286 278 278 277 277 277 289 296 283 302 320 333 321 291 279 266 271 269 232 246 258 250 265 241
119 119 134 134 125 128 150 160 118 81 109 77 27 8 336 3 17 347 317 284 279 282 286 289 291 288 287 291 284 275 273 275 273 267 269 263 263 253 258 244 243 247 263
126 124 191 56 72 129 209 118 122 140 156 110 71 300 297 278 37 352 323 279 283 285 281 284 291 294 306 306 308 276 257 241 244 264 270 269 275 271 262 250 240 243 247
106 112 91 106 294 212 175 122 100 143 108 114 142 276 295 7 8 346 314 279 279 276 280 297 305 304 306 317 310 303 295 282 262 246 247 262 265 281 277 261 264 260 263
93 68 65 98 92 232 65 49 22 356 39 46 352 348 355 347 14 353 337 320 294 292 297 294 292 302 334 357 313 299 295 285 249 222 274 294 289 283 267 272 230 213 230
106 105 94 102 131 122 97 74 32 339 2 10 340 341 1 316 324 317 319 292 290 293 286 280 253 266 326 330 318 311 301 295 293 298 297 271 247 263 224 238 236 225 227
117 112 112 112 117 104 97 87 76 40 351 17 307 289 278 280 305 311 324 304 293 293 290 290 290 317 291 289 295 287 274 306 304 293 289 281 281 283 280 236 231 221 245
100 90 89 85 76 68 61 68 8 348 318 307 285 274 267 286 254 300 310 284 290 283 279 286 286 302 306 300 275 258 260 276 270 275 284 280 277 281 289 296 265 244 236
89 76 63 55 48 42 40 26 347 348 324 314 306 303 300 302 294 266 258 263 269 273 286 305 304 296 287 281 253 254 243 246 256 261 267 267 276 285 291 277 265 266 261
98 87 73 54 23 21 9 0 340 339 321 305 307 308 315 320 316 319 323 317 264 263 277 290 295 288 278 272 287 267 260 265 272 273 273 279 283 276 268 270 271 273 275
93 94 91 91 113 94 328 343 341 326 309 314 316 315 317 314 344 337 321 312 324 335 324 296 292 290 283 284 282 281 281 275 268 268 268 274 273 272 266 262 257 261 243
101 89 66 81 80 33 353 341 248 273 289 270 276 276 302 274 294 304 300 284 279 284 286 290 290 285 282 283 280 280 280 276 276 274 271 268 266 263 262 262 255 254 255
111 115 110 91 66 5 304 312 325 268 239 254 241 243 234 270 287 270 264 264 267 221 242 275 276 274 281 285 286 279 282 292 300 283 277 273 270 265 254 255 261 240 253
158 157 194 330 310 301 305 307 299 312 318 313 221 239 214 230 248 284 291 278 278 212 264 286 286 282 275 270 265 262 264 268 274 280 288 280 271 262 261 258 259 261 247
200 216 247 269 267 284 286 294 301 305 304 308 308 254 187 204 257 251 222 286 298 293 298 289 284 278 284 282 276 273 272 271 281 278 268 270 274 268 260 260 268 268 271
223 215 241 269 286 287 287 286 288 289 281 270 281 292 301 311 311 309 308 305 294 293 306 297 288 290 289 281 284 290 294 280 275 275 261 261 264 269 260 255 253 260 262
273 271 234 262 274 287 286 284 283 279 287 294 293 301 335 309 301 306 310 310 301 297 295 297 295 293 286 282 292 294 305 294 300 283 259 255 255 265 266 265 262 261 258
270 270 269 273 288 290 292 298 289 292 295 300 312 318 242 292 312 314 311 312 309 299 299 300 293 292 291 289 310 312 298 287 293 289 302 298 275 260 259 261 262 263 265
274 278 281 280 282 291 288 295 299 306 313 316 323 326 329 329 327 326 317 303 308 306 314 305 302 303 309 307 306 301 298 292 292 296 291 285 285 286 291 290 285 276 271
294 289 284 280 281 294 297 298 312 315 310 321 324 330 332 332 329 319 307 306 305 316 310 311 308 307 309 311 309 303 293 297 312 303 293 279 273 274 272 271 272 270 265
306 299 293 277 267 278 298 304 322 313 321 319 322 331 330 328 315 319 315 309 314 312 318 317 314 312 315 319 317 321 319 307 295 286 284 274 267 267 266 263 263 269 273
307 297 293 285 274 279 282 296 307 315 310 312 326 328 327 327 317 315 318 319 320 319 317 315 311 311 318 313 306 315 312 304 307 291 275 267 264 257 252 255 259 259 260